Location: Aultman
(40.9284°N, 81.4173°W)
Time: 08:49:36
(UTC+00:00)

Cosmos 489 Rocket - Pass Details

Date: 24 January 2021
Orbit: 952 x 983 km, 74.0° (Epoch: 02 March)

Event Time Altitude Azimuth Distance (km) Brightness Sun altitude
Rises 23:28:11 0° 340° (NNW) 3,697 7.6 -10.5°
Reaches altitude 10° 23:30:45 10° 341° (NNW) 2,743 6.9 -11.0°
Maximum altitude 23:37:08 86° 71° (ENE) 986 4.5 -12.1°
Drops below altitude 10° 23:43:26 10° 161° (SSE) 2,710 6.8 -13.3°
Sets 23:45:57 0° 161° (SSE) 3,649 7.5 -13.8°
